ORBCOMM FM109

Last updated on Sat Aug 15 2026 00:03:10 GMT+0000 (Coordinated Universal Time)

1 40086U 14040A 26226.58563336 .00000087 00000+0 54528-4 0 9996 2 40086 47.0021 175.3730 0000684 151.9379 208.1544 14.58890636642874
UTC large
Height (km)
Speed (km/s)
/
Latitude / Longitude
Inclination (degrees)
Orbital Period (minutes)
Azimuth
Elevation
Range (km)
Doppler Factor

Next 0 passes for location: London (51.5072 / 0.1276)

No passes found over London.
ORBCOMM FM109